[[{"header":{"parameterUnit":"m.s-1","parameterCategory":1,"la1":30.2991,"la2":30.254,"lo1":-89.0895,"lo2":-89.0444,"dy":0.0017,"dx":0.0017,"nx":28,"ny":28,"refTime":"2023-04-30T15:00:00:Z","depth":0,"parameterNumber":2,"parameterNumberName":"U-component_of_WINDS"},"data":[0,0,0,0,0,0,0,0,0,0,0,0,0,0,0,0,0,0,0,0,0,0,0,0,0,0,0,0,0,0,0,0,0,0,0,0,0,0,0,0,0,0,0,0,0,0,0,0,0,0,0,0,0,0,0,0,0,0,0.9503,0.9504,0,0.9571,0.9572,0.9573,0.9565,0.9564,0.9563,0.9562,0.9633,0.9636,0.9639,0,0,0,0,0,0,0,0,0,0,0,0,0,0.937,0.9373,0.9503,0.9504,0.9505,0.9571,0.9572,0.9573,0.9565,0.9564,0.9562,0.9561,0.9632,0.9636,0.9639,0,0,0,0,0,0,0,0,0,0,0,0,0,0.9432,0.9374,0.9503,0.9509,0.951,0.9571,0.9572,0.9573,0.9565,0.9564,0.9562,0.9561,0.9631,0.9635,0.964,0.9699,0,0,0.9653,0.9655,0,0,0,0,0,0,0,0,0.9429,0.9437,0.9507,0.9509,0.951,0.9558,0.9551,0.9615,0.9566,0.9544,0.9562,0.956,0.961,0.9616,0.9632,0.9703,0.9706,0.9653,0.9656,0.9658,0.9659,0,0,0,0,0,0,0,0.9424,0.9434,0.953,0.9508,0.951,0.9509,0.9516,0.9563,0.9585,0.9546,0.9546,0.9554,0.961,0.9628,0.9634,0.9707,0.9653,0.9657,0.966,0.9662,0.9831,0.9833,0,0,0,0,0,0,0.9418,0.943,0.9528,0.9532,0.9464,0.9513,0.9521,0.9544,0.9585,0.9589,0.9555,0.9553,0.9621,0.9628,0.9636,0.9709,0.9658,0.9662,0.9664,0.9829,0.9831,0.9834,0,0,0,0,0,0,0.9415,0.9427,0.9525,0.9481,0.9494,0.9517,0.9543,0.9546,0.9564,0.9592,0.9596,0.9569,0.962,0.963,0.9684,0.9711,0.9664,0.9668,0.9827,0.983,0.9833,0.9855,0,0,0,0,0,0,0.9412,0.9426,0.9448,0.9482,0.9496,0.9571,0.9545,0.9549,0.9571,0.9569,0.9606,0.961,0.962,0.9677,0.9688,0.9716,0.9671,0.9825,0.9828,0.9832,0.9852,0.9858,0.9864,0,0,0,0,0,0.9407,0.9452,0.9449,0.9461,0.9524,0.9572,0.9581,0.959,0.9574,0.9596,0.9614,0.9609,0.9707,0.9683,0.9695,0.9725,0.9823,0.9827,0.9831,0.9849,0.9857,0.9863,0,0,0,0,0,0,0.9421,0.9456,0.9454,0.9511,0.9539,0.9571,0.96,0.9598,0.9631,0.9628,0.9639,0.9648,0.9702,0.9719,0.9692,0.9786,0.9763,0.977,0.9772,0.978,0.9786,0.978,0.9675,0,0,0,0,0,0.9431,0.9466,0.9496,0.9543,0.9557,0.9577,0.9598,0.9603,0.9632,0.9644,0.9666,0.9696,0.9733,0.9757,0.9793,0.9855,0.9863,0.9882,0.9887,0.9892,0.9898,0.9932,0.9941,0.9847,0.9847,0.9847,0,0,0.9451,0.9475,0.9497,0.9547,0.9569,0.9606,0.9586,0.9627,0.9655,0.9651,0.9702,0.972,0.9754,0.9812,0.9838,0.9828,0.9926,0.9898,0.9901,0.9904,0.9938,0.9946,0.9954,0.985,0.985,0.9849,0,0,0.9508,0.9529,0.9571,0.9594,0.9628,0.964,0.9651,0.9684,0.9695,0.9747,0.9745,0.978,0.9844,0.9868,0.9889,0.9956,0.9953,0.9968,0.9998,1.0032,1.0039,1.0046,1.007,1.0079,0.9974,0.9974,0.9974,0,0.9529,0.9585,0.9594,0.9635,0.9657,0.9655,0.9698,0.972,0.9764,0.978,0.9768,0.9849,0.9871,0.9935,0.9952,0.9969,0.9982,0.9963,1.0037,1.0044,1.0051,1.0074,1.0083,0.9975,0.9975,0.9975,0.9975,0,0.961,0.9648,0.9679,0.9721,0.9747,0.9789,0.9805,0.9831,0.9834,0.9848,0.9902,0.993,0.9971,0.9987,0.9991,1.0052,1.0045,1.0035,1.0012,1.0061,1.0083,1.0092,0.9978,0.9977,0.9977,0.9976,0,0,0.9676,0.9723,0.9734,0.9753,0.9791,0.9822,0.9865,0.9905,0.9927,0.9958,0.9994,1.0049,1.0041,1.0065,1.0071,1.0101,1.0153,1.0087,1.0088,1.0099,1.0223,1.023,1.024,1.0151,1.0153,1.0154,1.022,0,0.9736,0.981,0.982,0.9886,0.9923,0.9922,0.9959,0.9987,1.0002,1.0036,1.0053,1.0092,1.0078,1.0092,1.0121,1.014,1.0178,1.0136,1.0186,1.0188,1.0177,1.0252,1.0259,1.032,1.0229,1.0231,1.0232,0,0.9815,0.9848,0.9918,0.9951,0.9967,1.0,1.0039,1.0071,1.0103,1.0112,1.0139,1.0143,1.0188,1.0164,1.0227,1.0198,1.022,1.0233,1.0235,1.024,1.0212,1.0258,1.0339,1.0348,1.0245,1.0244,1.0243,0,0.9856,0.9918,0.9968,0.9985,1.0025,1.0049,1.0067,1.0098,1.0122,1.0156,1.0172,1.0211,1.0233,1.0263,1.0278,1.0259,1.0341,1.0317,1.035,1.035,1.0366,1.0365,1.0452,1.0381,1.0381,1.0381,1.038,0,0.9922,0.9965,0.9987,1.0018,1.0066,1.0078,1.0126,1.0144,1.0171,1.0206,1.0208,1.0241,1.0258,1.0294,1.0306,1.0357,1.0367,1.0376,1.0379,1.0376,1.0374,1.0389,1.0385,1.0383,1.0383,1.0382,1.0382,0,0.9975,0.9992,1.0046,1.0081,1.009,1.0125,1.0154,1.0185,1.02,1.0244,1.0256,1.028,1.0322,1.034,1.0392,1.04,1.0459,1.0458,1.0448,1.0448,1.048,1.0476,1.0579,1.0593,1.0513,1.0514,1.0514,0,1.0016,1.0049,1.0087,1.011,1.0129,1.0166,1.0191,1.0205,1.023,1.027,1.0296,1.0339,1.0373,1.0441,1.0464,1.0505,1.0505,1.0538,1.0511,1.0507,1.0506,1.0503,1.0507,1.0543,1.0544,1.0544,1.0545,0,1.0086,1.0093,1.0128,1.0166,1.0195,1.0226,1.0257,1.0276,1.0295,1.0324,1.0367,1.0394,1.0447,1.049,1.0532,1.0552,1.0552,1.0553,1.0563,1.056,1.0552,1.0557,1.0461,1.0551,1.055,1.055,1.0549,1.0549,1.0134,1.0163,1.0195,1.0234,1.0258,1.0287,1.0317,1.0337,1.0373,1.0417,1.0423,1.047,1.0503,1.0559,1.0581,1.0618,1.061,1.0624,1.0627,1.0631,1.0633,1.0547,1.0626,1.0626,1.0626,1.0626,1.0626,0,1.0204,1.0225,1.0261,1.0303,1.0334,1.0331,1.0365,1.0392,1.0432,1.0463,1.0497,1.0547,1.0589,1.0616,1.0658,1.0683,1.0684,1.0693,1.0691,1.0696,1.0638,1.0625,1.0692,1.0692,1.0692,1.0692,1.0691,1.0691,1.0244,1.0294,1.0305,1.0367,1.0388,1.0433,1.0452,1.0479,1.0504,1.056,1.0594,1.0611,1.064,1.0685,1.0723,1.073,1.0746,1.0756,1.0762,1.0707,1.07,1.0693,1.0682,1.0759,1.0759,1.0818,1.0818,1.0819]},{"header":{"parameterUnit":"m.s-1","parameterCategory":1,"la1":30.2991,"la2":30.254,"lo1":-89.0895,"lo2":-89.0444,"dy":0.0017,"dx":0.0017,"nx":28,"ny":28,"refTime":"2023-04-30T15:00:00:Z","depth":0,"parameterNumber":3,"parameterNumberName":"V-component_of_WINDS"},"data":[0,0,0,0,0,0,0,0,0,0,0,0,0,0,0,0,0,0,0,0,0,0,0,0,0,0,0,0,0,0,0,0,0,0,0,0,0,0,0,0,0,0,0,0,0,0,0,0,0,0,0,0,0,0,0,0,0,0,-0.4852,-0.4851,0,-0.479,-0.4789,-0.4789,-0.4824,-0.4826,-0.4828,-0.4829,-0.476,-0.4757,-0.4753,0,0,0,0,0,0,0,0,0,0,0,0,0,-0.4995,-0.4992,-0.4852,-0.4851,-0.485,-0.479,-0.4789,-0.4788,-0.4824,-0.4826,-0.4828,-0.483,-0.4761,-0.4757,-0.4753,0,0,0,0,0,0,0,0,0,0,0,0,0,-0.4933,-0.4992,-0.4852,-0.4861,-0.4861,-0.479,-0.4789,-0.4788,-0.4823,-0.4826,-0.4829,-0.4831,-0.4763,-0.4758,-0.4753,-0.4668,0,0,-0.4737,-0.4734,0,0,0,0,0,0,0,0,-0.4936,-0.4928,-0.486,-0.486,-0.486,-0.4818,-0.4815,-0.4748,-0.4823,-0.4838,-0.4829,-0.4833,-0.4777,-0.4771,-0.4753,-0.4664,-0.4661,-0.4736,-0.4733,-0.4731,-0.4729,0,0,0,0,0,0,0,-0.4941,-0.493,-0.4827,-0.4859,-0.4859,-0.4866,-0.486,-0.4802,-0.4793,-0.4837,-0.4839,-0.4831,-0.4777,-0.4758,-0.4752,-0.466,-0.4736,-0.4732,-0.4728,-0.4726,-0.4497,-0.4494,0,0,0,0,0,0,-0.4945,-0.4934,-0.4829,-0.4825,-0.4906,-0.4862,-0.4855,-0.4829,-0.4794,-0.4791,-0.4829,-0.4833,-0.4766,-0.4758,-0.4749,-0.4646,-0.4731,-0.4726,-0.4723,-0.45,-0.4496,-0.4493,0,0,0,0,0,0,-0.4948,-0.4936,-0.4832,-0.488,-0.4868,-0.4856,-0.4826,-0.4826,-0.4807,-0.4788,-0.4786,-0.4812,-0.4767,-0.4757,-0.4688,-0.4644,-0.4724,-0.4719,-0.4504,-0.4499,-0.4495,-0.444,0,0,0,0,0,0,-0.4952,-0.4936,-0.4905,-0.4879,-0.4865,-0.4773,-0.4824,-0.4823,-0.4798,-0.4803,-0.4771,-0.4768,-0.4769,-0.4695,-0.4683,-0.4639,-0.4715,-0.4507,-0.4501,-0.4496,-0.4445,-0.4434,-0.4424,0,0,0,0,0,-0.4957,-0.4891,-0.4904,-0.4891,-0.4826,-0.477,-0.4762,-0.4765,-0.4795,-0.4762,-0.475,-0.4769,-0.4652,-0.4688,-0.4674,-0.4628,-0.451,-0.4503,-0.4497,-0.445,-0.4436,-0.4425,0,0,0,0,0,0,-0.4911,-0.4888,-0.4901,-0.4826,-0.48,-0.4776,-0.4736,-0.475,-0.4714,-0.4719,-0.4723,-0.4716,-0.4643,-0.4629,-0.467,-0.4543,-0.4585,-0.4575,-0.4555,-0.4541,-0.4531,-0.4535,-0.471,0,0,0,0,0,-0.4892,-0.485,-0.4832,-0.4767,-0.4754,-0.4747,-0.4722,-0.4727,-0.47,-0.4688,-0.4671,-0.4642,-0.4599,-0.457,-0.4528,-0.4444,-0.4436,-0.4405,-0.4395,-0.4386,-0.4377,-0.4329,-0.4315,-0.4471,-0.4471,-0.4471,0,0,-0.4852,-0.4835,-0.4808,-0.4757,-0.4738,-0.4692,-0.4737,-0.4687,-0.4653,-0.468,-0.4614,-0.46,-0.4568,-0.4491,-0.4456,-0.4476,-0.4332,-0.4378,-0.4371,-0.4366,-0.4321,-0.4306,-0.4293,-0.4467,-0.4468,-0.4468,0,0,-0.4756,-0.474,-0.4683,-0.4663,-0.4633,-0.4629,-0.4615,-0.459,-0.4582,-0.4516,-0.4535,-0.4494,-0.4419,-0.4395,-0.4373,-0.4267,-0.4282,-0.4254,-0.4198,-0.4151,-0.4139,-0.4128,-0.4088,-0.4074,-0.4245,-0.4245,-0.4245,0,-0.4709,-0.4644,-0.4651,-0.46,-0.4576,-0.4601,-0.4542,-0.4522,-0.4479,-0.4461,-0.4486,-0.4392,-0.4372,-0.4288,-0.4263,-0.4245,-0.4227,-0.4256,-0.4141,-0.413,-0.4119,-0.4081,-0.4067,-0.4241,-0.4242,-0.4242,-0.4243,0,-0.4587,-0.4541,-0.4498,-0.4458,-0.443,-0.4375,-0.4373,-0.4343,-0.435,-0.4343,-0.4274,-0.4252,-0.4206,-0.4187,-0.4193,-0.4103,-0.4117,-0.4141,-0.4183,-0.4101,-0.4065,-0.4051,-0.4236,-0.4238,-0.4239,-0.424,0,0,-0.4458,-0.4424,-0.4408,-0.439,-0.4359,-0.4322,-0.4268,-0.4225,-0.4198,-0.4168,-0.4121,-0.4057,-0.4079,-0.4054,-0.4058,-0.4017,-0.3933,-0.4046,-0.4045,-0.4024,-0.383,-0.381,-0.3794,-0.3944,-0.3941,-0.3939,-0.3832,0,-0.4359,-0.4266,-0.4271,-0.4182,-0.4138,-0.4161,-0.4114,-0.4088,-0.408,-0.404,-0.4031,-0.3985,-0.4018,-0.4003,-0.3964,-0.3951,-0.3893,-0.3959,-0.3897,-0.3895,-0.3902,-0.3775,-0.3755,-0.3655,-0.3818,-0.3816,-0.3814,0,-0.423,-0.4197,-0.4104,-0.4079,-0.4061,-0.4018,-0.3978,-0.3941,-0.3912,-0.3909,-0.3881,-0.3891,-0.3834,-0.388,-0.3799,-0.3844,-0.3819,-0.3809,-0.3805,-0.3797,-0.3848,-0.3762,-0.3623,-0.3607,-0.3793,-0.3794,-0.3796,0,-0.4143,-0.4075,-0.4011,-0.3995,-0.3964,-0.3933,-0.3919,-0.3893,-0.3866,-0.3831,-0.3813,-0.3772,-0.3748,-0.3714,-0.3712,-0.3746,-0.363,-0.3676,-0.3623,-0.3623,-0.3596,-0.3597,-0.3449,-0.3584,-0.3584,-0.3584,-0.3585,0,-0.4029,-0.3971,-0.3971,-0.3931,-0.3866,-0.3872,-0.3807,-0.3795,-0.3772,-0.3729,-0.3746,-0.3705,-0.3706,-0.3663,-0.3661,-0.3593,-0.3583,-0.3577,-0.3576,-0.3574,-0.3574,-0.3555,-0.3561,-0.358,-0.3581,-0.3582,-0.3583,0,-0.392,-0.3918,-0.3849,-0.3826,-0.3819,-0.3772,-0.3752,-0.3713,-0.3707,-0.3651,-0.3639,-0.3628,-0.3578,-0.3574,-0.3516,-0.3514,-0.3432,-0.344,-0.3442,-0.3442,-0.3389,-0.3393,-0.3222,-0.3199,-0.3351,-0.3349,-0.3348,0,-0.3847,-0.3803,-0.3776,-0.3749,-0.3733,-0.369,-0.3663,-0.3667,-0.3638,-0.3602,-0.3566,-0.3519,-0.3481,-0.34,-0.3386,-0.3341,-0.3347,-0.329,-0.334,-0.3339,-0.3343,-0.3345,-0.334,-0.328,-0.3278,-0.3277,-0.3276,0,-0.3716,-0.3718,-0.3679,-0.364,-0.3608,-0.3577,-0.3548,-0.3525,-0.3525,-0.3491,-0.3442,-0.3412,-0.3354,-0.3305,-0.3262,-0.3245,-0.3258,-0.326,-0.3245,-0.3241,-0.3243,-0.3239,-0.3413,-0.3264,-0.3265,-0.3266,-0.3266,-0.3267,-0.3621,-0.3582,-0.3557,-0.3514,-0.3493,-0.3465,-0.3427,-0.3417,-0.3376,-0.333,-0.3335,-0.3279,-0.325,-0.3193,-0.3173,-0.3128,-0.3147,-0.3125,-0.312,-0.3114,-0.3107,-0.3252,-0.312,-0.3121,-0.3121,-0.3121,-0.3121,0,-0.3489,-0.3475,-0.3435,-0.3394,-0.3359,-0.3379,-0.3348,-0.3316,-0.3268,-0.3241,-0.3203,-0.3145,-0.3099,-0.3081,-0.3035,-0.3002,-0.3007,-0.299,-0.2991,-0.2986,-0.3094,-0.3111,-0.2986,-0.2986,-0.2986,-0.2986,-0.2986,-0.2986,-0.3417,-0.3352,-0.335,-0.3274,-0.3259,-0.3206,-0.3187,-0.316,-0.3139,-0.3074,-0.3036,-0.3026,-0.3001,-0.2954,-0.2911,-0.2907,-0.2888,-0.2866,-0.2865,-0.2965,-0.2979,-0.2992,-0.3007,-0.2863,-0.2863,-0.276,-0.2759,-0.2758]}]]